Charleston, SC

5:04 AM EDT on June 23, 2017 (GMT -0400)
Charleston Executive

Weather History for KJZI - October, 2013

Change the Weather History Date:

Monday, October 14, 2013

  Actual Average (KCHS) Record (KCHS)
Temperature  
Mean Temperature 72 °F -  
Max Temperature 77 °F 79 °F 88 °F (1990)
Min Temperature 66 °F 56 °F 39 °F (1988)
Cooling Degree Days 8    
Growing Degree Days 22 (Base 50)    
Moisture  
Dew Point 65 °F    
Average Humidity 79    
Maximum Humidity 88    
Minimum Humidity 69    
Precipitation  
Precipitation 0.00 in - - ()
Sea Level Pressure  
Sea Level Pressure 30.09 in    
Wind  
Wind Speed 11 mph (North)    
Max Wind Speed 14 mph    
Max Gust Speed 21 mph    
Visibility 10 miles    
Events      
Averages and records for this station are not official NWS values.
T = Trace of Precipitation, MM = Missing Value Source: NWS Daily Summary

Daily Weather History Graph

Daily Weather History Graph

Search for Another Location

Airport or City:

Trip Planner

Search our weather history database for the weather conditions in past years. The results will help you decide how hot, cold, wet, or windy it might be!

Date:

Astronomy

Oct. 14, 2013 Rise Set
Actual Time 7:23 AM EDT 6:47 PM EDT
Civil Twilight 6:58 AM EDT 7:12 PM EDT
Nautical Twilight 6:30 AM EDT 7:41 PM EDT
Astronomical Twilight 6:01 AM EDT 8:09 PM EDT
Moon 4:04 PM EDT (10/14) 2:52 AM EDT (10/14)
Length of Visible Light 12h 14m
Length of Day
11h 24m
Waxing Gibbous, 79% of the Moon is Illuminated
Oct 14
Waxing Gibbous
Oct 18
Full
Oct 26
Last Quarter
Nov 3
New
Nov 10
First Quarter

Hourly Weather History & Observations

Time (EDT) Temp. Dew Point Humidity Pressure Visibility Wind Dir Wind Speed Gust Speed Precip Events Conditions
12:15 AM 69.8 °F 64.4 °F 83% 30.10 in 10.0 mi North 9.2 mph - 0.00 in   Overcast
12:35 AM 69.8 °F 64.4 °F 83% 30.10 in 10.0 mi North 9.2 mph - 0.00 in   Overcast
12:55 AM 69.8 °F 64.4 °F 83% 30.10 in 10.0 mi North 11.5 mph - 0.00 in   Overcast
1:15 AM 69.8 °F 64.4 °F 83% 30.09 in 10.0 mi North 12.7 mph - 0.00 in   Overcast
1:35 AM 69.8 °F 64.4 °F 83% 30.09 in 10.0 mi North 11.5 mph 17.3 mph 0.00 in   Overcast
1:55 AM 69.8 °F 64.4 °F 83% 30.09 in 10.0 mi North 11.5 mph 18.4 mph 0.00 in   Overcast
2:15 AM 69.8 °F 64.4 °F 83% 30.08 in 10.0 mi North 10.4 mph 16.1 mph 0.00 in   Overcast
2:35 AM 69.8 °F 64.4 °F 83% 30.08 in 10.0 mi North 11.5 mph 18.4 mph 0.00 in   Overcast
2:55 AM 69.8 °F 64.4 °F 83% 30.07 in 10.0 mi North 8.1 mph 16.1 mph 0.00 in   Overcast
3:15 AM 69.8 °F 64.4 °F 83% 30.07 in 10.0 mi North 11.5 mph - 0.00 in   Overcast
3:35 AM 69.8 °F 64.4 °F 83% 30.07 in 10.0 mi North 11.5 mph 18.4 mph 0.00 in   Overcast
3:55 AM 69.8 °F 64.4 °F 83% 30.07 in 10.0 mi North 9.2 mph 17.3 mph 0.00 in   Overcast
4:15 AM 69.8 °F 64.4 °F 83% 30.07 in 10.0 mi North 10.4 mph - 0.00 in   Overcast
4:35 AM 69.8 °F 64.4 °F 83% 30.08 in 10.0 mi North 10.4 mph - 0.00 in   Overcast
4:55 AM 69.8 °F 64.4 °F 83% 30.08 in 10.0 mi NNE 10.4 mph - 0.00 in   Overcast
5:15 AM 69.8 °F 64.4 °F 83% 30.08 in 10.0 mi North 8.1 mph - 0.00 in   Overcast
5:35 AM 69.8 °F 64.4 °F 83% 30.08 in 10.0 mi NNE 12.7 mph - 0.00 in   Overcast
5:55 AM 69.8 °F 64.4 °F 83% 30.08 in 9.0 mi NNE 10.4 mph - 0.00 in   Overcast
6:15 AM 69.8 °F 64.4 °F 83% 30.09 in 10.0 mi North 10.4 mph - 0.00 in   Overcast
6:35 AM 69.8 °F 64.4 °F 83% 30.09 in 10.0 mi North 11.5 mph 16.1 mph 0.00 in   Overcast
6:55 AM 69.8 °F 64.4 °F 83% 30.09 in 10.0 mi North 10.4 mph - 0.00 in   Overcast
7:15 AM 69.8 °F 64.4 °F 83% 30.10 in 10.0 mi North 10.4 mph - 0.00 in   Overcast
7:35 AM 69.8 °F 64.4 °F 83% 30.10 in 10.0 mi North 10.4 mph - 0.00 in   Overcast
7:55 AM 69.8 °F 64.4 °F 83% 30.10 in 10.0 mi North 10.4 mph - 0.00 in   Overcast
8:15 AM 69.8 °F 64.4 °F 83% 30.11 in 10.0 mi North 9.2 mph - 0.00 in   Overcast
8:35 AM 69.8 °F 64.4 °F 83% 30.11 in 9.0 mi North 10.4 mph - 0.00 in   Overcast
8:55 AM 69.8 °F 64.4 °F 83% 30.12 in 7.0 mi North 10.4 mph - 0.00 in   Overcast
9:15 AM 69.8 °F 64.4 °F 83% 30.12 in 10.0 mi North 9.2 mph - 0.00 in   Overcast
9:35 AM 69.8 °F 64.4 °F 83% 30.11 in 10.0 mi North 11.5 mph 17.3 mph 0.00 in   Overcast
9:55 AM 69.8 °F 64.4 °F 83% 30.11 in 10.0 mi North 11.5 mph 17.3 mph 0.00 in   Overcast
10:15 AM 71.6 °F 64.4 °F 78% 30.12 in 10.0 mi North 10.4 mph 16.1 mph 0.00 in   Overcast
10:35 AM 71.6 °F 64.4 °F 78% 30.12 in 10.0 mi North 10.4 mph 16.1 mph 0.00 in   Overcast
10:55 AM 71.6 °F 64.4 °F 78% 30.12 in 10.0 mi NNE 10.4 mph - 0.00 in   Overcast
11:15 AM 71.6 °F 64.4 °F 78% 30.11 in 8.0 mi North 12.7 mph - 0.00 in   Overcast
11:35 AM 73.4 °F 66.2 °F 78% 30.10 in 10.0 mi North 11.5 mph - 0.00 in   Overcast
11:55 AM 71.6 °F 64.4 °F 78% 30.10 in 9.0 mi North 10.4 mph 18.4 mph 0.00 in   Overcast
12:15 PM 73.4 °F 66.2 °F 78% 30.09 in 10.0 mi North 13.8 mph 18.4 mph 0.00 in   Overcast
12:35 PM 73.4 °F 64.4 °F 73% 30.09 in 10.0 mi NNE 13.8 mph 20.7 mph 0.00 in   Overcast
12:55 PM 73.4 °F 64.4 °F 73% 30.09 in 10.0 mi NNE 11.5 mph 17.3 mph 0.00 in   Overcast
1:15 PM 71.6 °F 64.4 °F 78% 30.08 in 9.0 mi NNE 12.7 mph - 0.00 in   Overcast
1:35 PM 73.4 °F 66.2 °F 78% 30.07 in 10.0 mi North 13.8 mph - 0.00 in   Overcast
1:55 PM 73.4 °F 64.4 °F 73% 30.06 in 10.0 mi North 11.5 mph 18.4 mph 0.00 in   Overcast
2:15 PM 75.2 °F 66.2 °F 73% 30.06 in 10.0 mi North 10.4 mph - 0.00 in   Mostly Cloudy
2:35 PM 73.4 °F 64.4 °F 73% 30.06 in 10.0 mi NNE 11.5 mph - 0.00 in   Overcast
2:55 PM 75.2 °F 66.2 °F 73% 30.06 in 10.0 mi NNE 6.9 mph - 0.00 in   Overcast
3:15 PM 75.2 °F 66.2 °F 73% 30.06 in 10.0 mi NNE 8.1 mph - 0.00 in   Overcast
3:35 PM 75.2 °F 66.2 °F 73% 30.06 in 10.0 mi North 5.8 mph - 0.00 in   Overcast
3:55 PM 77.0 °F 66.2 °F 69% 30.05 in 10.0 mi NNE 8.1 mph - 0.00 in   Mostly Cloudy
4:15 PM 77.0 °F 66.2 °F 69% 30.05 in 10.0 mi NNE 9.2 mph - 0.00 in   Mostly Cloudy
4:35 PM 75.2 °F 66.2 °F 73% 30.05 in 10.0 mi North 9.2 mph - 0.00 in   Overcast
4:55 PM 77.0 °F 66.2 °F 69% 30.05 in 10.0 mi North 8.1 mph 16.1 mph 0.00 in   Mostly Cloudy
5:15 PM 75.2 °F 66.2 °F 73% 30.05 in 10.0 mi NNE 9.2 mph - 0.00 in   Overcast
5:35 PM 75.2 °F 66.2 °F 73% 30.05 in 10.0 mi NNE 8.1 mph - 0.00 in   Overcast
5:55 PM 73.4 °F 64.4 °F 73% 30.06 in 10.0 mi North 9.2 mph - 0.00 in   Overcast
6:15 PM 73.4 °F 64.4 °F 73% 30.06 in 10.0 mi North 11.5 mph - 0.00 in   Overcast
6:35 PM 73.4 °F 64.4 °F 73% 30.06 in 10.0 mi North 10.4 mph - 0.00 in   Mostly Cloudy
6:55 PM 73.4 °F 64.4 °F 73% 30.07 in 10.0 mi North 11.5 mph - 0.00 in   Mostly Cloudy
7:15 PM 73.4 °F 64.4 °F 73% 30.07 in 10.0 mi North 11.5 mph - 0.00 in   Overcast
7:35 PM 73.4 °F 64.4 °F 73% 30.07 in 10.0 mi NNE 13.8 mph - 0.00 in   Overcast
7:55 PM 71.6 °F 64.4 °F 78% 30.08 in 10.0 mi NNE 10.4 mph 18.4 mph 0.00 in   Mostly Cloudy
8:15 PM 71.6 °F 64.4 °F 78% 30.08 in 10.0 mi NNE 13.8 mph 20.7 mph 0.00 in   Mostly Cloudy
8:35 PM 71.6 °F 64.4 °F 78% 30.09 in 10.0 mi NNE 11.5 mph - 0.00 in   Mostly Cloudy
8:55 PM 69.8 °F 64.4 °F 83% 30.09 in 10.0 mi North 11.5 mph 17.3 mph 0.00 in   Overcast
9:15 PM 69.8 °F 64.4 °F 83% 30.09 in 10.0 mi NNE 10.4 mph 18.4 mph 0.00 in   Mostly Cloudy
9:35 PM 69.8 °F 64.4 °F 83% 30.10 in 10.0 mi North 11.5 mph - 0.00 in   Overcast
9:55 PM 69.8 °F 64.4 °F 83% 30.10 in 10.0 mi NNE 12.7 mph - 0.00 in   Mostly Cloudy
10:15 PM 69.8 °F 64.4 °F 83% 30.11 in 10.0 mi North 11.5 mph - 0.00 in   Scattered Clouds
10:35 PM 69.8 °F 64.4 °F 83% 30.11 in 10.0 mi NNE 11.5 mph 17.3 mph 0.00 in   Scattered Clouds
10:55 PM 68.0 °F 64.4 °F 88% 30.11 in 10.0 mi NNE 12.7 mph - 0.00 in   Mostly Cloudy
11:15 PM 68.0 °F 64.4 °F 88% 30.12 in 10.0 mi North 10.4 mph - 0.00 in   Mostly Cloudy
11:35 PM 68.0 °F 64.4 °F 88% 30.11 in 10.0 mi NNE 10.4 mph - 0.00 in   Mostly Cloudy
11:55 PM 66.2 °F 62.6 °F 88% 30.11 in 10.0 mi North 11.5 mph - 0.00 in   Partly Cloudy